TimePDT,TemperatureF,Dew PointF,Humidity,Sea Level PressureIn,VisibilityMPH,Wind Direction,Wind SpeedMPH,Gust SpeedMPH,PrecipitationIn,Events,Conditions,WindDirDegrees,DateUTC
12:01 AM,44.6,41.0,87,29.84,10.0,ESE,6.9,-,N/A,,Mostly Cloudy,120,2012-10-21 07:01:00
12:09 AM,44.6,41.0,87,29.84,10.0,East,5.8,-,N/A,,Mostly Cloudy,90,2012-10-21 07:09:00
12:18 AM,44.6,41.0,87,29.84,10.0,East,5.8,-,N/A,,Mostly Cloudy,100,2012-10-21 07:18:00
12:33 AM,44.6,41.0,87,29.83,10.0,SE,5.8,-,N/A,,Overcast,130,2012-10-21 07:33:00
12:53 AM,45.0,41.0,86,29.84,10.0,ESE,6.9,-,N/A,,Overcast,110,2012-10-21 07:53:00
1:53 AM,44.1,41.0,89,29.83,10.0,East,8.1,-,N/A,,Overcast,90,2012-10-21 08:53:00
2:30 AM,44.6,39.2,81,29.83,10.0,SSE,8.1,-,N/A,,Overcast,150,2012-10-21 09:30:00
2:53 AM,45.0,39.9,82,29.83,10.0,SE,6.9,-,N/A,,Overcast,140,2012-10-21 09:53:00
3:53 AM,44.1,39.9,85,29.82,10.0,SSE,5.8,-,N/A,,Overcast,150,2012-10-21 10:53:00
4:21 AM,44.6,39.2,81,29.82,10.0,Calm,Calm,-,N/A,,Overcast,0,2012-10-21 11:21:00
4:53 AM,42.1,39.0,89,29.83,10.0,West,5.8,-,0.00,Rain,Light Rain,270,2012-10-21 11:53:00
5:53 AM,41.0,39.0,93,29.83,10.0,WNW,4.6,-,0.00,Rain,Light Rain,290,2012-10-21 12:53:00
6:53 AM,39.9,37.9,93,29.84,10.0,NNE,3.5,-,0.00,,Overcast,20,2012-10-21 13:53:00
7:53 AM,39.0,37.9,96,29.85,10.0,Calm,Calm,-,N/A,,Overcast,0,2012-10-21 14:53:00
8:53 AM,44.1,41.0,89,29.86,10.0,East,5.8,-,N/A,,Clear,100,2012-10-21 15:53:00
9:53 AM,45.0,39.9,82,29.87,10.0,SE,8.1,-,N/A,,Partly Cloudy,130,2012-10-21 16:53:00
10:53 AM,46.9,39.9,77,29.87,10.0,SE,9.2,-,N/A,,Scattered Clouds,140,2012-10-21 17:53:00
11:03 AM,46.4,39.2,76,29.87,10.0,ESE,10.4,-,N/A,,Mostly Cloudy,120,2012-10-21 18:03:00
11:53 AM,48.0,39.9,74,29.88,10.0,SE,10.4,-,N/A,,Mostly Cloudy,130,2012-10-21 18:53:00
12:53 PM,48.9,39.0,69,29.87,10.0,SE,6.9,-,N/A,,Mostly Cloudy,130,2012-10-21 19:53:00
1:11 PM,50.0,39.2,66,29.86,10.0,SE,8.1,-,N/A,,Scattered Clouds,130,2012-10-21 20:11:00
1:53 PM,48.9,39.0,69,29.86,10.0,ESE,5.8,-,N/A,,Scattered Clouds,120,2012-10-21 20:53:00
2:53 PM,52.0,39.0,61,29.84,10.0,SE,6.9,-,N/A,,Mostly Cloudy,140,2012-10-21 21:53:00
3:53 PM,50.0,37.9,63,29.83,10.0,ESE,9.2,-,N/A,,Scattered Clouds,110,2012-10-21 22:53:00
4:53 PM,50.0,37.9,63,29.82,10.0,East,6.9,-,N/A,,Partly Cloudy,100,2012-10-21 23:53:00
5:53 PM,48.9,39.0,69,29.82,10.0,SE,10.4,-,N/A,,Mostly Cloudy,130,2012-10-22 00:53:00
6:53 PM,48.0,37.9,68,29.82,10.0,ESE,8.1,-,N/A,,Overcast,110,2012-10-22 01:53:00
7:53 PM,46.9,39.0,74,29.83,10.0,East,11.5,-,N/A,,Mostly Cloudy,100,2012-10-22 02:53:00
8:26 PM,46.4,39.2,76,29.83,10.0,East,10.4,-,N/A,,Overcast,90,2012-10-22 03:26:00
8:53 PM,46.0,39.0,76,29.83,10.0,East,12.7,-,N/A,,Overcast,90,2012-10-22 03:53:00
9:53 PM,45.0,37.9,76,29.83,10.0,East,5.8,-,N/A,,Overcast,80,2012-10-22 04:53:00
10:53 PM,44.1,37.0,76,29.82,10.0,ENE,4.6,-,N/A,,Clear,70,2012-10-22 05:53:00
11:53 PM,41.0,37.9,89,29.81,10.0,North,3.5,-,N/A,,Clear,360,2012-10-22 06:53:00